Summerville, SC

4:28 AM EST on January 22, 2017 (GMT -0500)
Summerville

Weather History for KDYB - February, 2014

Change the Weather History Date:

Wednesday, February 12, 2014

  Actual Average (KCHS) Record (KCHS)
Temperature  
Mean Temperature 32 °F -  
Max Temperature 33 °F 60 °F 79 °F (1999)
Min Temperature 32 °F 37 °F 12 °F (1973)
Degree Days  
Heating Degree Days 32    
Moisture  
Dew Point 32 °F    
Average Humidity 100    
Maximum Humidity 100    
Minimum Humidity 93    
Precipitation  
Precipitation 0.00 in - - ()
Sea Level Pressure  
Sea Level Pressure 30.25 in    
Wind  
Wind Speed 9 mph (NNE)    
Max Wind Speed 15 mph    
Max Gust Speed 21 mph    
Visibility 6 miles    
Events Snow    
Averages and records for this station are not official NWS values.
T = Trace of Precipitation, MM = Missing Value Source: NWS Daily Summary

Daily Weather History Graph

Daily Weather History Graph

Search for Another Location

Airport or City:

Trip Planner

Search our weather history database for the weather conditions in past years. The results will help you decide how hot, cold, wet, or windy it might be!

Date:

Astronomy

Feb. 12, 2014 Rise Set
Actual Time 7:07 AM EST 6:03 PM EST
Civil Twilight 6:42 AM EST 6:29 PM EST
Nautical Twilight 6:12 AM EST 6:58 PM EST
Astronomical Twilight 5:44 AM EST 7:27 PM EST
Moon 4:18 PM EST (2/12) 5:20 AM EST (2/12)
Length of Visible Light 11h 46m
Length of Day
10h 56m
Waxing Gibbous, 95% of the Moon is Illuminated
Feb 12
Waxing Gibbous
Feb 14
Full
Feb 22
Last Quarter
Mar 1
New
Mar 8
First Quarter

Hourly Weather History & Observations

Time (EST) Temp. Windchill Dew Point Humidity Pressure Visibility Wind Dir Wind Speed Gust Speed Precip Events Conditions
12:15 AM 33.8 °F 27.7 °F 33.8 °F 100% 30.31 in 7.0 mi North 6.9 mph - N/A   Overcast
12:35 AM 32.0 °F 24.2 °F 32.0 °F 100% 30.28 in 5.0 mi NNE 9.2 mph - N/A   Overcast
1:15 AM 32.0 °F 24.2 °F 32.0 °F 100% 30.28 in 5.0 mi North 9.2 mph - N/A   Overcast
1:35 AM 32.0 °F 22.5 °F 32.0 °F 100% 30.28 in 7.0 mi NNE 12.7 mph - N/A   Overcast
1:55 AM 32.0 °F 21.6 °F 32.0 °F 100% 30.25 in 7.0 mi NNE 15.0 mph 18.4 mph N/A   Overcast
2:15 AM 32.0 °F 24.2 °F 32.0 °F 100% 30.25 in 7.0 mi NNE 9.2 mph 18.4 mph N/A   Overcast
2:35 AM 32.0 °F 25.6 °F 32.0 °F 100% 30.25 in 7.0 mi NNE 6.9 mph 17.3 mph N/A   Overcast
2:55 AM 32.0 °F 24.8 °F 32.0 °F 100% 30.26 in 10.0 mi NNE 8.1 mph 17.3 mph N/A   Overcast
3:15 AM 32.0 °F 23.0 °F 32.0 °F 100% 30.25 in 10.0 mi NNE 11.5 mph 17.3 mph N/A   Overcast
3:35 AM 32.0 °F 21.6 °F 32.0 °F 100% 30.25 in 10.0 mi NNE 15.0 mph 19.6 mph N/A   Overcast
3:55 AM 32.0 °F 23.0 °F 32.0 °F 100% 30.24 in 10.0 mi NNE 11.5 mph 16.1 mph N/A   Overcast
4:15 AM 32.0 °F 22.1 °F 32.0 °F 100% 30.24 in 10.0 mi NNE 13.8 mph 18.4 mph N/A   Overcast
4:35 AM 32.0 °F 22.5 °F 30.2 °F 93% 30.24 in 7.0 mi NNE 12.7 mph 20.7 mph N/A   Overcast
4:55 AM 32.0 °F 23.6 °F 32.0 °F 100% 30.25 in 10.0 mi North 10.4 mph 18.4 mph N/A   Overcast
5:15 AM 32.0 °F 26.4 °F 32.0 °F 100% 30.27 in 3.0 mi NNE 5.8 mph - N/A   Overcast
5:35 AM 32.0 °F 23.6 °F 32.0 °F 100% 30.25 in 5.0 mi NNE 10.4 mph - N/A   Overcast
5:55 AM 32.0 °F 22.5 °F 32.0 °F 100% 30.22 in 5.0 mi NNE 12.7 mph 18.4 mph N/A   Overcast
6:15 AM 32.0 °F 26.4 °F 32.0 °F 100% 30.23 in 4.0 mi NNE 5.8 mph - N/A   Overcast
6:35 AM 32.0 °F 27.5 °F 32.0 °F 100% 30.26 in 4.0 mi North 4.6 mph - N/A Snow Snow
6:55 AM 32.0 °F 24.8 °F 32.0 °F 100% 30.23 in 3.0 mi NNE 8.1 mph - N/A Snow Light Snow
7:15 AM 32.0 °F 26.4 °F 32.0 °F 100% 30.22 in 5.0 mi NE 5.8 mph - N/A   Overcast
7:35 AM 32.0 °F 25.6 °F 32.0 °F 100% 30.21 in 5.0 mi NNE 6.9 mph - N/A Snow Snow
7:55 AM 32.0 °F 27.5 °F 32.0 °F 100% 30.23 in 5.0 mi NNE 4.6 mph - N/A   Overcast
8:15 AM 32.0 °F 26.4 °F 32.0 °F 100% 30.21 in 4.0 mi North 5.8 mph - N/A Snow Light Snow
8:35 AM 32.0 °F 28.7 °F 32.0 °F 100% 30.23 in 5.0 mi NNE 3.5 mph - N/A   Overcast
8:55 AM 32.0 °F - 32.0 °F 100% - - North - - N/A   Unknown
9:15 AM - - - N/A% - - North - - N/A   Unknown
9:35 AM - - - N/A% - - North - - N/A   Unknown